Regional Weather Roundup
Issued by NWS Cleveland, OH

Home | Current Version | Previous Version | Text Only | Print | Product List | Glossary On
Versions: 1 2 3 4 5 6 7 8 9 10 11 12 13 14 15 16 17 18 19 20 21 22 23 24 25 26 27 28 29 30 31 32 33 34 35 36 37 38 39 40 41 42 43 44 45 46 47 48 49 50
000
ASUS41 KCLE 240212
RWRCLE
OHIO REGIONAL WEATHER ROUNDUP
NATIONAL WEATHER SERVICE WILMINGTON, OH
900 PM EST SUN FEB 23 2020

NOTE: "FAIR" INDICATES FEW OR NO CLOUDS BELOW 12,000 FEET WITH NO
SIGNIFICANT WEATHER AND/OR OBSTRUCTIONS TO VISIBILITY.

OHZ001>008-015>018-024>027-034-035-043-044-240300-
   NORTHWEST OHIO

CITY           SKY/WX    TMP DP  RH WIND       PRES   REMARKS
DEFIANCE       FAIR      43  30  60 SW10      29.98S
FINDLAY        FAIR      37  28  70 S10       29.99S
TOLEDO EXPRESS FAIR      47  29  49 SW13      29.96S
TOLEDO EXEC    FAIR      40  28  62 SW12      29.98S
LIMA           FAIR      42  26  53 S9        30.00S
$$

OHZ009>014-019>023-028>033-038-089-240300-
   NORTHEAST OHIO

CITY           SKY/WX    TMP DP  RH WIND       PRES   REMARKS
CLE-HOPKINS    FAIR      45  23  42 S13       30.01S
CLE-LAKEFRONT  FAIR      47  21  35 S18G26    29.98S
CUY CO. ARPT   CLEAR     45  21  39 SW9       29.98R
LORAIN-ELYRIA  FAIR      42  22  44 SW12      30.00S
ASHTABULA      FAIR      44  18  35 SW10      30.00R
AKRON-CANTON   FAIR      42  18  37 S10       30.02F
WOOSTER        FAIR      38  21  50 SW9       30.02F
MANSFIELD      FAIR      41  24  51 S13       30.01S
YOUNGSTOWN     FAIR      44  14  29 S9        30.00F
$$

OHZ042-051>053-060>062-070>072-077>081-240300-
  SOUTHWEST OHIO

CITY           SKY/WX    TMP DP  RH WIND       PRES   REMARKS
CINC-COVINGTON FAIR      40  24  53 S8        30.05S
CINC-LUNKEN    FAIR      41  25  53 S7        30.07S
HAMILTON       FAIR      32  24  72 CALM      30.06S
DAYTON         FAIR      45  22  40 S9        30.03F
WRIGHT-PAT AFB FAIR      39  19  45 SW5       30.03F
DAYTON GENERAL FAIR      41  22  46 S5        30.03F
WILMINGTON     CLOUDY    39  27  62 S6        30.04F
$$

OHZ036-037-039>041-045>050-054>059-063>069-073>076-082>088-240300-
  CENTRAL AND SOUTHEAST OHIO

CITY           SKY/WX    TMP DP  RH WIND       PRES   REMARKS
COLUMBUS       CLOUDY    46  23  40 S6        30.04F
OSU AIRPORT    FAIR      43  24  47 S6        30.04S
BOLTON FIELD   CLOUDY    43  27  52 S7        30.05S
RICKENBACK AFB CLOUDY    41  24  51 CALM      30.04F
NEWARK         CLOUDY    45  23  42 S6        30.04F
MARION         FAIR      39  25  57 S10       30.02F
LANCASTER      CLOUDY    38  25  59 S3        30.05F
ZANESVILLE     CLOUDY    46  21  37 S5        30.06S
NEW PHILLY     CLOUDY    43  18  36 S5        30.05S
$$




USA.gov is the U.S. government's official web portal to all federal, state and local government web resources and services.